User: anonymous   Login
Location: Unspecified
(0.0000°N, 0.0000°E)
Time: 13:15:50
(UTC+01:00)
Language:

Meteor 1-31 Rocket - Orbit

View from above orbital plane
View from above orbital plane
View from above satellite
View from above satellite

Ground track
Ground track

The orbit data is extracted from the following two-line orbital elements,

1 12586U 81065B   17324.91269046 +.00000437 +00000-0 +30582-4 0  9992
2 12586 097.5147 303.3501 0019765 026.6801 333.5441 15.10135725975984
Epoch (UTC): 20 November 2017 21:54:16
Eccentricity: 0.0019765
inclination: 97.5147°
perigee height: 522 km
apogee height: 549 km
right ascension of ascending node: 303.3501°
argument of perigee: 26.6801°
revolutions per day: 15.10135725
mean anomaly at epoch: 333.5441°
orbit number at epoch: 97598

The dashed part of the orbit path shows where the satellite is in the earth's shadow,  

DLR